Simultaneous Nadir Overpasses (SNOs) Predictions

Prediction of SNOs between GOES-17 and METOP-B Satellite Orbit:

Table of predicted SNOs for the next 14.0 days since TLE Epoch: 2/26/2022
Index Date Time (GOES-17) GOES-17 Lat,Lon METOP-B Lat,Lon Distance(km) Time Diff (sec)
1 02/26/2022 18:56:10 0.02,-137.21 0.88,-140.99 431.03 80
2 02/27/2022 18:32:51 0.03,-137.21 -0.25,-136.00 137.92 80
3 03/01/2022 06:54:30 -0.03,-137.20 -0.81,-140.59 387.07 80
4 03/02/2022 06:31:10 -0.03,-137.19 0.32,-135.60 181.83 80
5 03/03/2022 18:50:02 0.03,-137.20 0.70,-140.16 337.40 80
6 03/04/2022 18:29:22 0.03,-137.20 -0.43,-135.17 231.41 80
7 03/06/2022 06:51:01 -0.03,-137.18 -0.61,-139.76 294.03 80
8 03/07/2022 06:27:42 -0.03,-137.18 0.52,-134.77 274.44 80
9 03/08/2022 18:46:33 0.03,-137.18 0.50,-139.33 245.85 80
10 03/09/2022 18:28:34 0.02,-137.17 -0.63,-134.34 322.15 80
11 03/11/2022 06:44:53 -0.02,-137.14 -0.40,-138.94 204.67 80
